Zurück zum Katalog

CZ-4C DEB

AktivLEO
NORAD 43629·DEBRIS·🇨🇳 China

Gestartet Nov 20, 2013 von Taiyuan Satellite Launch Center

Loading…

Nächste Überflüge (nächste 24 Stunden)

TLE

AlterndSource: Space-Track

Epoche: Sep 11, 2026, 20:31 UTC

1 43629U 13065F   26254.85528426  .00006377  00000-0  52529-2 0  9996
2 43629 100.8727 100.0740 0077978 256.7954 102.4489 13.88176749401769

Verfolge CZ-4C DEB in Echtzeit mit AllMySat

Download on the App Store